Location: Potomac
(46.8816°N, 113.5795°W)
Time: 02:55:21
(UTC+00:00)

Oscar 19 - Pass Details

Date: 02 July 2022
Orbit: 773 x 790 km, 98.8° (Epoch: 14 August)

Event Time Altitude Azimuth Distance (km) Brightness Sun altitude
Rises 09:54:55 0° 29° (NNE) 3,262 15.9 -13.6°
Reaches altitude 10° 09:58:00 10° 48° (NE) 2,328 14.4 -13.3°
Maximum altitude 10:01:26 18° 90° (E) 1,836 13.0 -13.0°
Drops below altitude 10° 10:04:51 10° 133° (SE) 2,316 13.0 -12.7°
Sets 10:07:53 0° 152° (SSE) 3,239 13.6 -12.4°
